EW5095 Weather Reports


time (UTC)temp
C
wind
direction
speed
KPH
gust
KPH
rain 1hr
cm
rain 24hr
cm
rain mn
cm
humidity
%
barometer
mb
20260507104506 10 75 8.0 16.1 0.00 0.00 0.00 59 1022.1
20260507104005 10 75 8.0 16.1 0.00 0.00 0.00 59 1022.2
20260507103506 11 76 8.0 16.1 0.00 0.00 0.00 59 1022.2
20260507103005 11 70 8.0 19.3 0.00 0.00 0.00 59 1022.1
20260507102505 11 72 9.7 19.3 0.00 0.00 0.00 59 1022.2
20260507102007 11 75 11.3 20.9 0.00 0.00 0.00 59 1022.1
20260507101005 11 69 12.9 24.1 0.00 0.00 0.00 59 1022.1
20260507100505 11 58 12.9 22.5 0.00 0.00 0.00 59 1022.2
20260507095005 11 62 16.1 32.2 0.00 0.00 0.00 60 1022.0
20260507094505 11 51 12.9 32.2 0.00 0.00 0.00 61 1021.9
20260507094006 11 51 12.9 25.7 0.00 0.00 0.00 63 1022.0
20260507093505 11 66 11.3 20.9 0.00 0.00 0.00 64 1021.9
20260507093006 10 60 9.7 20.9 0.00 0.00 0.00 66 1022.0
20260507092505 10 59 8.0 19.3 0.00 0.00 0.00 68 1021.9
20260507091505 10 52 9.7 19.3 0.00 0.00 0.00 69 1021.8
20260507091005 10 61 9.7 19.3 0.00 0.00 0.00 69 1021.7
20260507090505 10 49 9.7 19.3 0.00 0.00 0.00 70 1021.8
20260507090006 10 53 8.0 16.1 0.00 0.00 0.00 70 1021.8
20260507085505 10 50 4.8 12.9 0.00 0.00 0.00 70 1021.7
20260507084505 10 42 3.2 9.7 0.00 0.00 0.00 70 1021.6
20260507084005 10 78 3.2 8.0 0.00 0.00 0.00 70 1021.6
20260507083505 11 71 4.8 8.0 0.00 0.00 0.00 70 1021.5
20260507082005 11 68 4.8 9.7 0.00 0.00 0.00 69 1021.5
20260507081505 11 43 4.8 9.7 0.00 0.00 0.00 70 1021.6
20260507081005 11 38 4.8 9.7 0.00 0.00 0.00 70 1021.5
20260507080505 11 41 3.2 8.0 0.00 0.00 0.00 70 1021.6
20260507080005 11 59 3.2 4.8 0.00 0.00 0.00 70 1021.5
20260507075505 11 54 4.8 8.0 0.00 0.00 0.00 70 1021.5
20260507075005 11 67 4.8 9.7 0.00 0.00 0.00 69 1021.4
20260507074505 11 72 4.8 9.7 0.00 0.00 0.00 69 1021.2
20260507074005 11 77 4.8 9.7 0.00 0.00 0.00 68 1021.2
20260507073504 11 64 4.8 9.7 0.00 0.00 0.00 67 1021.1
20260507073005 11 62 3.2 4.8 0.00 0.00 0.00 66 1021.1
20260507072505 11 58 4.8 11.3 0.00 0.00 0.00 66 1021.0
20260507072005 11 82 4.8 11.3 0.00 0.00 0.00 66 1021.0
20260507071505 12 67 4.8 11.3 0.00 0.00 0.00 65 1021.1
20260507070505 12 77 3.2 4.8 0.00 0.00 0.00 65 1021.1
20260507070009 12 77 4.8 8.0 0.00 0.00 0.00 65 1021.0
20260507065505 12 77 4.8 8.0 0.00 0.00 0.00 65 1020.9
20260507065004 12 81 4.8 8.0 0.00 0.00 0.00 65 1020.9
20260507064505 12 75 4.8 9.7 0.00 0.00 0.00 65 1020.8
20260507064005 12 94 4.8 11.3 0.00 0.00 0.00 64 1020.6
20260507063505 13 89 4.8 11.3 0.00 0.00 0.00 63 1020.7
20260507063005 13 98 4.8 11.3 0.00 0.00 0.00 62 1020.6
20260507062505 13 94 4.8 11.3 0.00 0.00 0.00 61 1020.7
20260507062005 13 88 8.0 11.3 0.00 0.00 0.00 61 1020.4
20260507061505 13 75 8.0 11.3 0.00 0.00 0.00 61 1020.4
20260507061004 13 77 8.0 19.3 0.00 0.00 0.00 61 1020.3
20260507055505 14 85 11.3 19.3 0.00 0.00 0.00 61 1019.9
20260507054005 14 102 11.3 24.1 0.00 0.00 0.00 60 1019.3
20260507053505 14 96 11.3 24.1 0.00 0.00 0.00 59 1019.2
20260507053005 14 101 12.9 20.9 0.00 0.00 0.00 59 1019.2
20260507052505 14 99 14.5 20.9 0.00 0.00 0.00 58 1019.2
20260507052005 15 104 14.5 20.9 0.00 0.00 0.00 58 1019.1
20260507051505 15 104 12.9 22.5 0.00 0.00 0.00 57 1018.9
20260507051005 15 103 11.3 22.5 0.00 0.00 0.00 56 1019.0
20260507050504 15 98 9.7 19.3 0.00 0.00 0.00 55 1018.7
20260507050006 15 104 9.7 16.1 0.00 0.00 0.00 54 1018.6
20260507045504 15 103 9.7 16.1 0.00 0.00 0.00 54 1018.7
20260507045005 15 103 12.9 25.7 0.00 0.00 0.00 54 1018.7
20260507044505 15 87 14.5 32.2 0.00 0.00 0.00 54 1018.4
20260507044005 15 107 14.5 32.2 0.00 0.00 0.00 53 1018.3
20260507043505 15 109 16.1 24.1 0.00 0.00 0.00 52 1018.3
20260507043005 15 104 16.1 22.5 0.00 0.00 0.00 52 1018.3
20260507042504 15 96 12.9 22.5 0.00 0.00 0.00 52 1018.1
20260507042004 15 93 12.9 24.1 0.00 0.00 0.00 51 1018.0
20260507041005 16 104 12.9 20.9 0.00 0.00 0.00 51 1017.8
20260507040504 16 100 14.5 24.1 0.00 0.00 0.00 51 1017.8
20260507040005 16 103 16.1 24.1 0.00 0.00 0.00 50 1017.9
20260507035505 16 90 14.5 24.1 0.00 0.00 0.00 50 1017.8
20260507034505 16 94 14.5 24.1 0.00 0.00 0.00 50 1017.5
20260507034004 16 93 14.5 27.4 0.00 0.00 0.00 49 1017.4
20260507033504 16 96 14.5 27.4 0.00 0.00 0.00 49 1017.4
20260507033004 16 101 16.1 25.7 0.00 0.00 0.00 49 1017.2
20260507032505 17 101 16.1 32.2 0.00 0.00 0.00 48 1017.2
20260507032005 17 103 14.5 32.2 0.00 0.00 0.00 48 1017.2
20260507031505 17 98 14.5 32.2 0.00 0.00 0.00 48 1017.1
20260507030505 17 103 16.1 25.7 0.00 0.00 0.00 47 1017.0
20260507030004 17 101 14.5 24.1 0.00 0.00 0.00 46 1017.1
20260507025504 17 98 14.5 24.1 0.00 0.00 0.00 46 1017.0
20260507025004 17 100 14.5 24.1 0.00 0.00 0.00 46 1017.0
20260507024504 17 99 14.5 24.1 0.00 0.00 0.00 46 1016.8
20260507023504 18 98 16.1 24.1 0.00 0.00 0.00 45 1016.7
20260507023005 18 95 16.1 24.1 0.00 0.00 0.00 44 1016.6
20260507022505 18 99 19.3 29.0 0.00 0.00 0.00 44 1016.4
20260507022004 18 97 19.3 29.0 0.00 0.00 0.00 44 1016.3
20260507021004 18 104 19.3 29.0 0.00 0.00 0.00 43 1016.0
20260507020504 18 101 19.3 27.4 0.00 0.00 0.00 43 1016.1
20260507020004 19 91 19.3 25.7 0.00 0.00 0.00 43 1015.9
20260507015504 19 99 19.3 35.4 0.00 0.00 0.00 42 1015.8
20260507015005 19 101 19.3 35.4 0.00 0.00 0.00 41 1015.6
20260507014504 19 101 14.5 22.5 0.00 0.00 0.00 41 1015.5
20260507014004 20 100 12.9 22.5 0.00 0.00 0.00 41 1015.3
20260507013005 20 103 19.3 25.7 0.00 0.00 0.00 40 1015.1
20260507012504 20 96 19.3 25.7 0.00 0.00 0.00 39 1015.0
20260507012004 20 104 19.3 25.7 0.00 0.00 0.00 39 1014.9
20260507011505 20 99 19.3 29.0 0.00 0.00 0.00 38 1014.8
20260507010504 21 98 19.3 32.2 0.00 0.00 0.00 37 1014.6
20260507010005 21 107 19.3 32.2 0.00 0.00 0.00 37 1014.5
20260507005504 21 89 19.3 32.2 0.00 0.00 0.00 36 1014.5
20260507005004 21 99 19.3 29.0 0.00 0.00 0.00 36 1014.3
20260507004504 22 89 19.3 29.0 0.00 0.00 0.00 35 1014.2
20260507003505 22 100 16.1 27.4 0.00 0.00 0.00 35 1014.2
20260507003005 22 103 17.7 27.4 0.00 0.00 0.00 34 1014.1
20260507002504 22 110 19.3 27.4 0.00 0.00 0.00 34 1014.1
20260507002005 22 109 16.1 27.4 0.00 0.00 0.00 34 1014.0
20260507001504 22 95 16.1 27.4 0.00 0.00 0.00 34 1013.9
20260507001004 23 80 16.1 25.7 0.00 0.00 0.00 33 1014.0
20260507000005 23 110 16.1 29.0 0.00 0.00 0.00 33 1014.0
20260506235504 23 95 19.3 32.2 0.00 0.00 0.00 33 1014.0
20260506235004 23 117 19.3 32.2 0.00 0.00 0.00 33 1014.0
20260506234004 23 108 16.1 25.7 0.00 0.00 0.00 33 1014.0
20260506233004 23 131 16.1 27.4 0.00 0.00 0.00 33 1014.0
20260506232504 23 93 14.5 27.4 0.00 0.00 0.00 33 1013.9
20260506232004 23 123 14.5 27.4 0.00 0.00 0.00 33 1014.0
20260506231505 23 106 14.5 24.1 0.00 0.00 0.00 33 1014.0
20260506230504 23 103 8.0 24.1 0.00 0.00 0.00 33 1014.0
20260506230004 23 121 11.3 24.1 0.00 0.00 0.00 32 1013.9
20260506225504 24 116 12.9 25.7 0.00 0.00 0.00 33 1014.0
20260506225004 24 113 11.3 25.7 0.00 0.00 0.00 33 1014.0
20260506224504 24 123 12.9 20.9 0.00 0.00 0.00 33 1013.9
20260506224004 23 97 8.0 20.9 0.00 0.00 0.00 33 1013.9
20260506223005 23 131 11.3 22.5 0.00 0.00 0.00 33 1013.9
20260506222007 23 131 11.3 24.1 0.00 0.00 0.00 34 1013.9
20260506221504 23 93 12.9 24.1 0.00 0.00 0.00 34 1013.8
20260506221004 23 144 11.3 20.9 0.00 0.00 0.00 33 1013.9
20260506220505 23 109 11.3 24.1 0.00 0.00 0.00 34 1014.1
20260506220005 23 166 14.5 24.1 0.00 0.00 0.00 34 1014.2
20260506215505 23 105 11.3 24.1 0.00 0.00 0.00 34 1014.2
20260506215005 23 112 11.3 20.9 0.00 0.00 0.00 35 1014.2
20260506214504 23 166 12.9 20.9 0.00 0.00 0.00 34 1014.2
20260506214004 23 124 11.3 20.9 0.00 0.00 0.00 34 1014.3
20260506213504 23 150 9.7 19.3 0.00 0.00 0.00 35 1014.3
20260506213005 23 75 11.3 20.9 0.00 0.00 0.00 34 1014.4
20260506212504 23 123 12.9 20.9 0.00 0.00 0.00 35 1014.5
20260506211505 23 130 8.0 19.3 0.00 0.00 0.00 35 1014.6
20260506211004 23 122 8.0 19.3 0.00 0.00 0.00 34 1014.7
20260506210504 23 56 9.7 20.9 0.00 0.00 0.00 35 1014.7
20260506210004 23 91 9.7 24.1 0.00 0.00 0.00 35 1014.9
20260506205005 23 83 11.3 20.9 0.00 0.00 0.00 36 1014.9
20260506204504 23 90 8.0 19.3 0.00 0.00 0.00 37 1014.9
20260506204004 22 120 8.0 19.3 0.00 0.00 0.00 37 1014.8
20260506203004 22 52 8.0 22.5 0.00 0.00 0.00 37 1015.0
20260506202504 22 55 11.3 20.9 0.00 0.00 0.00 37 1014.9
20260506201505 22 81 9.7 24.1 0.00 0.00 0.00 37 1015.0
20260506201004 22 32 9.7 22.5 0.00 0.00 0.00 38 1015.2
20260506200505 22 28 11.3 27.4 0.00 0.00 0.00 37 1015.1
20260506195504 22 99 11.3 22.5 0.00 0.00 0.00 38 1015.2
20260506195004 22 42 8.0 29.0 0.00 0.00 0.00 38 1015.2
20260506194504 21 73 8.0 29.0 0.00 0.00 0.00 40 1015.3
20260506193504 21 90 8.0 24.1 0.00 0.00 0.00 40 1015.3
20260506193005 21 108 9.7 19.3 0.00 0.00 0.00 41 1015.3
20260506192504 20 85 11.3 19.3 0.00 0.00 0.00 41 1015.4
20260506192004 20 83 9.7 20.9 0.00 0.00 0.00 41 1015.4
20260506191005 20 116 12.9 24.1 0.00 0.00 0.00 43 1015.3
20260506190505 20 156 9.7 24.1 0.00 0.00 0.00 42 1015.4
20260506190005 20 69 8.0 20.9 0.00 0.00 0.00 44 1015.4
20260506185504 19 141 9.7 19.3 0.00 0.00 0.00 44 1015.4
20260506185005 19 148 8.0 22.5 0.00 0.00 0.00 44 1015.4
20260506184004 19 112 4.8 16.1 0.00 0.00 0.00 44 1015.5
20260506183504 19 72 4.8 20.9 0.00 0.00 0.00 45 1015.5
20260506183005 18 354 8.0 20.9 0.00 0.00 0.00 45 1015.8
20260506182504 18 78 8.0 16.1 0.00 0.00 0.00 45 1015.9
20260506182005 18 66 8.0 16.1 0.00 0.00 0.00 47 1015.9
20260506181504 18 97 8.0 25.7 0.00 0.00 0.00 46 1015.9
20260506181004 18 15 8.0 25.7 0.00 0.00 0.00 47 1016.0
20260506180005 17 87 9.7 22.5 0.00 0.00 0.00 48 1016.2
20260506175504 17 82 9.7 22.5 0.00 0.00 0.00 48 1016.2
20260506175004 17 36 9.7 19.3 0.00 0.00 0.00 48 1016.3
20260506174005 17 95 11.3 20.9 0.00 0.00 0.00 49 1016.4
20260506173504 17 63 9.7 20.9 0.00 0.00 0.00 49 1016.3
20260506173005 17 81 9.7 19.3 0.00 0.00 0.00 49 1016.4
20260506172504 16 105 8.0 19.3 0.00 0.00 0.00 50 1016.5
20260506172004 16 112 9.7 20.9 0.00 0.00 0.00 51 1016.5
20260506171504 16 94 11.3 20.9 0.00 0.00 0.00 51 1016.7
20260506170504 16 95 11.3 20.9 0.00 0.00 0.00 53 1016.6
20260506170004 15 124 8.0 19.3 0.00 0.00 0.00 53 1016.6
20260506165503 15 72 9.7 27.4 0.00 0.00 0.00 53 1016.6
20260506165005 15 81 12.9 27.4 0.00 0.00 0.00 54 1016.7
20260506164504 15 91 11.3 27.4 0.00 0.00 0.00 56 1016.9
20260506163504 14 104 14.5 25.7 0.00 0.00 0.00 56 1016.9
20260506163004 14 49 11.3 27.4 0.00 0.00 0.00 57 1017.0
20260506162504 13 66 11.3 27.4 0.00 0.00 0.00 60 1017.1
20260506162004 13 52 14.5 25.7 0.00 0.00 0.00 59 1016.9
20260506161504 13 95 14.5 27.4 0.00 0.00 0.00 61 1016.9
20260506161004 12 80 11.3 27.4 0.00 0.00 0.00 61 1016.9
20260506160504 12 69 12.9 27.4 0.00 0.00 0.00 62 1017.0
20260506160004 12 87 14.5 27.4 0.00 0.00 0.00 63 1017.1
20260506155504 12 63 14.5 27.4 0.00 0.00 0.00 64 1017.0
20260506155004 12 71 16.1 29.0 0.00 0.00 0.00 65 1017.1
20260506154504 12 92 16.1 29.0 0.00 0.00 0.00 66 1016.9
20260506153504 11 91 14.5 24.1 0.00 0.00 0.00 68 1017.0
20260506152504 11 82 16.1 29.0 0.00 0.00 0.00 69 1016.8
20260506152004 10 81 16.1 29.0 0.00 0.00 0.00 70 1017.0
20260506151504 10 98 16.1 27.4 0.00 0.00 0.00 71 1017.1
20260506151004 10 90 14.5 25.7 0.00 0.00 0.00 71 1017.1
20260506150504 10 85 12.9 22.5 0.00 0.00 0.00 72 1016.9
20260506145504 10 89 11.3 19.3 0.00 0.00 0.00 74 1017.0
20260506145004 10 71 12.9 25.7 0.00 0.00 0.00 74 1016.8
20260506144504 10 82 16.1 25.7 0.00 0.00 0.00 74 1016.8
20260506144004 10 75 16.1 29.0 0.00 0.00 0.00 74 1016.9
20260506143504 10 76 12.9 29.0 0.00 0.00 0.00 74 1016.8
20260506143004 10 53 14.5 25.7 0.00 0.00 0.00 74 1016.7
20260506142504 10 48 14.5 24.1 0.00 0.00 0.00 75 1016.8
20260506142004 10 77 14.5 24.1 0.00 0.00 0.00 75 1016.8
20260506141504 10 81 14.5 24.1 0.00 0.00 0.00 75 1016.6
20260506141004 9 79 14.5 24.1 0.00 0.00 0.00 75 1016.5
20260506140504 9 71 14.5 22.5 0.00 0.00 0.00 75 1016.4
20260506140004 9 85 16.1 27.4 0.00 0.00 0.00 75 1016.3
20260506135503 9 77 16.1 27.4 0.00 0.00 0.00 75 1016.3
20260506134506 9 75 16.1 25.7 0.00 0.00 0.00 75 1016.3
20260506133505 9 49 11.3 24.1 0.00 0.00 0.00 75 1015.8
20260506133006 9 51 11.3 22.5 0.00 0.00 0.00 75 1015.7
20260506132506 9 59 12.9 20.9 0.00 0.00 0.00 75 1015.6
20260506132007 9 47 12.9 20.9 0.00 0.00 0.00 75 1015.5
20260506131506 9 50 14.5 24.1 0.00 0.00 0.00 76 1015.4
20260506131006 9 44 16.1 27.4 0.00 0.00 0.00 76 1015.3
20260506130506 9 55 12.9 27.4 0.00 0.00 0.00 76 1015.2
20260506130006 8 50 11.3 24.1 0.00 0.00 0.00 76 1015.2
20260506125506 8 60 11.3 22.5 0.00 0.00 0.00 76 1015.1
20260506125005 8 53 16.1 24.1 0.00 0.00 0.00 76 1014.9
20260506124505 8 60 14.5 27.4 0.00 0.00 0.00 77 1014.7
20260506124005 8 56 14.5 27.4 0.00 0.00 0.00 77 1014.8
20260506123006 8 50 14.5 25.7 0.00 0.00 0.00 77 1014.3
20260506122505 8 50 14.5 29.0 0.00 0.00 0.00 77 1014.2
20260506121505 8 61 12.9 27.4 0.00 0.00 0.00 77 1014.1
20260506121006 8 48 12.9 25.7 0.00 0.00 0.00 77 1014.2
20260506120506 8 53 12.9 25.7 0.00 0.00 0.00 77 1014.1
20260506120005 8 52 14.5 25.7 0.00 0.00 0.00 77 1014.0
20260506115505 8 72 14.5 25.7 0.00 0.00 0.00 77 1014.0
20260506115006 8 55 14.5 25.7 0.00 0.00 0.00 77 1013.8
20260506114506 8 62 12.9 25.7 0.00 0.00 0.00 77 1013.6
20260506114006 8 65 9.7 19.3 0.00 0.00 0.00 78 1013.6
20260506113505 8 69 11.3 25.7 0.00 0.00 0.00 78 1013.5
20260506113006 8 74 14.5 29.0 0.00 0.00 0.00 78 1013.4
20260506112506 8 64 14.5 29.0 0.00 0.00 0.00 77 1013.6
20260506111505 9 74 12.9 22.5 0.00 0.00 0.00 78 1013.5
20260506111006 9 72 11.3 22.5 0.00 0.00 0.00 78 1013.3
20260506110505 8 52 12.9 25.7 0.00 0.00 0.00 77 1013.5
20260506105506 8 66 12.9 24.1 0.00 0.00 0.00 77 1013.3
20260506105005 8 77 12.9 22.5 0.00 0.00 0.00 77 1013.4